Cape Girardeau, MO

2:39 AM CST on December 13, 2019 (GMT -0600)
Cape Girardeau Regional

Weather History for KCGI - November, 2019

Change the Weather History Date:

Wednesday, November 13, 2019

  Actual Average Record
Temperature  
Mean Temperature 25 °F 48 °F  
Max Temperature 35 °F 59 °F 80 °F (1999)
Min Temperature 14 °F 37 °F 14 °F (1986)
Degree Days  
Heating Degree Days 40 17  
Month to date heating degree days 330 192  
Since 1 July heating degree days 591 495  
Cooling Degree Days 0 0  
Month to date cooling degree days 0 0  
Year to date cooling degree days 1775 1451  
Moisture  
Dew Point 16 °F    
Average Humidity 69    
Maximum Humidity 84    
Minimum Humidity 54    
Precipitation  
Precipitation T in 0.16 in 0.96 in (1961)
Month to date precipitation 2.08 1.78  
Year to date precipitation 57.59 39.90  
Sea Level Pressure  
Sea Level Pressure 30.31 in    
Wind  
Wind Speed 6 mph (SSE)    
Max Wind Speed 18 mph    
Max Gust Speed 23 mph    
Visibility 10 miles    
Events      
T = Trace of Precipitation, MM = Missing Value Source: NWS Daily Summary

Daily Weather History Graph

Daily Weather History Graph

Search for Another Location

Airport or City:

Astronomy

Nov. 13, 2019 Rise Set
Actual Time 6:34 AM CST 4:49 PM CST
Civil Twilight 6:07 AM CST 5:17 PM CST
Nautical Twilight 5:35 AM CST 5:48 PM CST
Astronomical Twilight 5:05 AM CST 6:19 PM CST
Moon 5:53 PM CST 7:27 AM CST
Length of Visible Light 11h 09m
Length of Day
10h 14m
Full, 99% of the Moon is Illuminated
Nov 13
Full
Nov 19
Last Quarter
Nov 26
New
Dec 4
First Quarter
Dec 11
Full

Hourly Weather History & Observations

Time (CST) Temp. Windchill Dew Point Humidity Pressure Visibility Wind Dir Wind Speed Gust Speed Precip Events Conditions
12:53 AM 16.0 °F 8.8 °F 8.1 °F 71% 30.45 in 10.0 mi ESE 4.6 mph - N/A   Clear
1:53 AM 15.1 °F 7.7 °F 8.1 °F 74% 30.44 in 10.0 mi East 4.6 mph - N/A   Clear
2:53 AM 16.0 °F 10.4 °F 9.0 °F 74% 30.43 in 10.0 mi ESE 3.5 mph - N/A   Clear
3:53 AM 16.0 °F 8.8 °F 10.0 °F 77% 30.42 in 10.0 mi ESE 4.6 mph - N/A   Clear
4:53 AM 16.0 °F 10.4 °F 10.0 °F 77% 30.40 in 10.0 mi SE 3.5 mph - N/A   Clear
5:53 AM 15.1 °F 9.4 °F 10.0 °F 80% 30.39 in 10.0 mi SSE 3.5 mph - N/A   Clear
6:53 AM 16.0 °F 6.3 °F 10.0 °F 77% 30.40 in 10.0 mi South 6.9 mph - N/A   Clear
7:53 AM 19.0 °F 10.0 °F 10.0 °F 68% 30.41 in 10.0 mi South 6.9 mph - N/A   Clear
8:53 AM 21.9 °F 11.7 °F 12.0 °F 66% 30.42 in 10.0 mi South 9.2 mph - N/A   Clear
9:53 AM 25.0 °F 15.5 °F 14.0 °F 63% 30.40 in 10.0 mi South 9.2 mph - N/A   Clear
10:53 AM 28.0 °F 17.0 °F 16.0 °F 61% 30.36 in 10.0 mi South 13.8 mph - N/A   Clear
11:53 AM 30.9 °F 21.2 °F 18.0 °F 59% 30.30 in 10.0 mi SSE 12.7 mph - N/A   Clear
12:53 PM 32.0 °F 22.5 °F 18.0 °F 56% 30.27 in 10.0 mi South 12.7 mph - N/A   Clear
1:53 PM 34.0 °F 25.0 °F 19.9 °F 56% 30.23 in 10.0 mi South 12.7 mph - N/A   Clear
2:53 PM 34.0 °F 26.6 °F 19.9 °F 56% 30.22 in 10.0 mi SW 9.2 mph - N/A   Clear
3:53 PM 33.1 °F 26.9 °F 19.9 °F 59% 30.21 in 10.0 mi South 6.9 mph - N/A   Clear
4:53 PM 30.9 °F 25.2 °F 21.9 °F 69% 30.21 in 10.0 mi SSW 5.8 mph - 0.00 in   Clear
5:53 PM 28.9 °F 22.8 °F 19.9 °F 69% 30.19 in 10.0 mi SSE 5.8 mph - N/A   Clear
6:53 PM 28.9 °F - 19.9 °F 69% 30.20 in 10.0 mi Calm Calm - N/A   Clear
7:53 PM 30.0 °F 23.2 °F 21.0 °F 69% 30.18 in 10.0 mi SSE 6.9 mph - N/A   Clear
8:53 PM 30.0 °F 26.5 °F 21.9 °F 72% 30.18 in 10.0 mi South 3.5 mph - N/A   Clear
9:53 PM 28.0 °F - 21.9 °F 78% 30.21 in 10.0 mi Calm Calm - N/A   Clear
10:53 PM 27.0 °F - 23.0 °F 85% 30.21 in 10.0 mi Calm Calm - N/A   Partly Cloudy
11:53 PM 26.1 °F - 21.9 °F 84% 30.21 in 10.0 mi Calm Calm - N/A   Partly Cloudy